| time (UTC) | temp C | wind direction | speed KPH | gust KPH | rain 1hr cm | rain 24hr cm | rain mn cm | humidity % | barometer mb |
| 20260504023035 | 17 | 22 | 1.6 | 3.2 | 0.00 | 0.00 | 0.00 | 37 | 1005.9 |
| 20260504021536 | 17 | 18 | 1.6 | 3.2 | 0.00 | 0.00 | 0.00 | 37 | 1005.7 |
| 20260504020038 | 17 | 34 | 3.2 | 4.8 | 0.00 | 0.00 | 0.00 | 36 | 1005.6 |
| 20260504014537 | 18 | 23 | 3.2 | 4.8 | 0.00 | 0.00 | 0.00 | 34 | 1005.7 |
| 20260504013042 | 19 | 16 | 4.8 | 8.0 | 0.00 | 0.00 | 0.00 | 32 | 1005.7 |
| 20260504011532 | 20 | 25 | 6.4 | 9.7 | 0.00 | 0.00 | 0.00 | 30 | 1005.7 |
| 20260504010030 | 21 | 15 | 8.0 | 12.9 | 0.00 | 0.00 | 0.00 | 28 | 1005.9 |
| 20260504004528 | 22 | 11 | 8.0 | 14.5 | 0.00 | 0.00 | 0.00 | 26 | 1006.1 |
| 20260504003026 | 23 | 359 | 9.7 | 14.5 | 0.00 | 0.00 | 0.00 | 24 | 1006.3 |
| 20260504001534 | 23 | 23 | 9.7 | 17.7 | 0.00 | 0.00 | 0.00 | 24 | 1006.2 |
| 20260504000025 | 24 | 9 | 12.9 | 19.3 | 0.00 | 0.00 | 0.00 | 22 | 1006.5 |
| 20260503234524 | 23 | 13 | 12.9 | 19.3 | 0.00 | 0.00 | 0.00 | 23 | 1006.5 |
| 20260503233023 | 23 | 8 | 12.9 | 19.3 | 0.00 | 0.00 | 0.00 | 22 | 1006.6 |
| 20260503231525 | 24 | 30 | 12.9 | 17.7 | 0.00 | 0.00 | 0.00 | 22 | 1006.7 |
| 20260503230035 | 24 | 335 | 9.7 | 20.9 | 0.00 | 0.00 | 0.00 | 22 | 1006.9 |
| 20260503224521 | 24 | 35 | 11.3 | 17.7 | 0.00 | 0.00 | 0.00 | 22 | 1007.0 |
| 20260503223019 | 25 | 1 | 9.7 | 19.3 | 0.00 | 0.00 | 0.00 | 22 | 1007.2 |
| 20260503221517 | 24 | 321 | 8.0 | 17.7 | 0.00 | 0.00 | 0.00 | 23 | 1007.3 |
| 20260503220016 | 25 | 42 | 9.7 | 19.3 | 0.00 | 0.00 | 0.00 | 23 | 1007.5 |
| 20260503214534 | 25 | 47 | 11.3 | 32.2 | 0.00 | 0.00 | 0.00 | 24 | 1007.7 |
| 20260503213014 | 24 | 43 | 17.7 | 25.7 | 0.00 | 0.00 | 0.00 | 22 | 1007.6 |
| 20260503211511 | 24 | 32 | 14.5 | 25.7 | 0.00 | 0.00 | 0.00 | 24 | 1007.9 |
| 20260503210010 | 24 | 37 | 14.5 | 24.1 | 0.00 | 0.00 | 0.00 | 23 | 1008.1 |
| 20260503204508 | 23 | 36 | 11.3 | 27.4 | 0.00 | 0.00 | 0.00 | 25 | 1008.4 |
| 20260503203011 | 25 | 69 | 12.9 | 24.1 | 0.00 | 0.00 | 0.00 | 24 | 1008.6 |
| 20260503201504 | 24 | 51 | 12.9 | 25.7 | 0.00 | 0.00 | 0.00 | 21 | 1009.0 |
| 20260503200003 | 25 | 64 | 16.1 | 29.0 | 0.00 | 0.00 | 0.00 | 22 | 1009.3 |
| 20260503194505 | 25 | 31 | 19.3 | 29.0 | 0.00 | 0.00 | 0.00 | 21 | 1009.4 |
| 20260503193118 | 24 | 18 | 20.9 | 29.0 | 0.00 | 0.00 | 0.00 | 23 | 1009.5 |
| 20260503191618 | 24 | 41 | 22.5 | 29.0 | 0.00 | 0.00 | 0.00 | 24 | 1009.5 |
| 20260503190059 | 24 | 46 | 17.7 | 30.6 | 0.00 | 0.00 | 0.00 | 26 | 1009.9 |
| 20260503184553 | 23 | 14 | 14.5 | 29.0 | 0.00 | 0.00 | 0.00 | 24 | 1010.2 |
| 20260503183050 | 23 | 53 | 20.9 | 37.0 | 0.00 | 0.00 | 0.00 | 25 | 1010.7 |
| 20260503181550 | 23 | 44 | 22.5 | 30.6 | 0.00 | 0.00 | 0.00 | 25 | 1010.9 |
| 20260503180055 | 22 | 56 | 20.9 | 29.0 | 0.00 | 0.00 | 0.00 | 26 | 1011.2 |
| 20260503174551 | 22 | 8 | 22.5 | 32.2 | 0.00 | 0.00 | 0.00 | 26 | 1011.4 |
| 20260503173041 | 22 | 11 | 27.4 | 37.0 | 0.00 | 0.00 | 0.00 | 26 | 1011.7 |
| 20260503171539 | 21 | 13 | 27.4 | 37.0 | 0.00 | 0.00 | 0.00 | 26 | 1011.9 |
| 20260503081539 | 7 | 193 | 8.0 | 14.5 | 0.00 | 0.00 | 0.00 | 56 | 1012.4 |
| 20260503071529 | 7 | 174 | 8.0 | 12.9 | 0.00 | 0.00 | 0.00 | 53 | 1012.6 |
| 20260503054516 | 7 | 144 | 3.2 | 6.4 | 0.00 | 0.00 | 0.00 | 54 | 1013.0 |
| 20260503053012 | 8 | 190 | 3.2 | 6.4 | 0.00 | 0.00 | 0.00 | 50 | 1013.0 |
| 20260503051507 | 11 | 148 | 6.4 | 12.9 | 0.00 | 0.00 | 0.00 | 45 | 1013.0 |
| 20260503050005 | 11 | 184 | 6.4 | 11.3 | 0.00 | 0.00 | 0.00 | 47 | 1013.1 |
| 20260503044505 | 10 | 160 | 4.8 | 8.0 | 0.00 | 0.00 | 0.00 | 46 | 1013.2 |
| 20260503043002 | 10 | 191 | 3.2 | 6.4 | 0.00 | 0.00 | 0.00 | 46 | 1013.3 |
| 20260503041506 | 10 | 162 | 3.2 | 6.4 | 0.00 | 0.00 | 0.00 | 46 | 1013.3 |
| 20260503040003 | 11 | 194 | 4.8 | 9.7 | 0.00 | 0.00 | 0.00 | 42 | 1013.4 |
| 20260503034603 | 11 | 159 | 4.8 | 9.7 | 0.00 | 0.00 | 0.00 | 40 | 1013.5 |
| 20260503033105 | 11 | 176 | 4.8 | 8.0 | 0.00 | 0.00 | 0.00 | 39 | 1013.5 |
| 20260503031600 | 12 | 194 | 4.8 | 8.0 | 0.00 | 0.00 | 0.00 | 38 | 1013.5 |
| 20260503030059 | 12 | 173 | 4.8 | 6.4 | 0.00 | 0.00 | 0.00 | 36 | 1013.6 |
| 20260503024559 | 13 | 186 | 4.8 | 6.4 | 0.00 | 0.00 | 0.00 | 35 | 1013.4 |